Weather History for Marshalltown, IA

Change the Weather History Date:

Wednesday, August 27, 2014

  Actual Average Record
Temperature  
Mean Temperature 70 °F 69 °F  
Max Temperature 76 °F 80 °F 96 °F (2013)
Min Temperature 63 °F 58 °F 53 °F (2005)
Degree Days  
Heating Degree Days 0 1  
Month to date heating degree days 0 7  
Since 1 June heating degree days 25 41  
Since 1 July heating degree days 18 13  
Cooling Degree Days 5 5  
Month to date cooling degree days 180 172  
Year to date cooling degree days 573 638  
Since 1 June cooling degree days 494 588  
Growing Degree Days 19 (Base 50)    
Moisture  
Dew Point 63 °F    
Average Humidity 81    
Maximum Humidity 93    
Minimum Humidity 68    
Precipitation  
Precipitation T in 0.14 in 0.33 in (1998)
Month to date precipitation 4.28 3.68  
Sea Level Pressure  
Sea Level Pressure 30.13 in    
Wind  
Wind Speed 5 mph (ENE)    
Max Wind Speed 10 mph    
Max Gust Speed 30 mph    
Visibility 10 miles    
Events Thunderstorm    
T = Trace of Precipitation, MM = Missing Value Source: NWS Daily Summary

Daily Weather History Graph

Daily Weather History Graph

Search for Another Location

Airport:

Trip Planner

Search our weather history database for the weather conditions in past years. The results will help you decide how hot, cold, wet, or windy it might be!

Date:

Astronomy

Aug. 27, 2014 Rise Set
Actual Time 6:31 AM CDT 7:53 PM CDT
Civil Twilight 6:02 AM CDT 8:22 PM CDT
Nautical Twilight 5:27 AM CDT 8:57 PM CDT
Astronomical Twilight 4:50 AM CDT 9:34 PM CDT
Moon 8:31 AM CDT (8/27) 8:42 PM CDT (8/27)
Length of Visible Light 14h 19m
Length of Day
13h 21m
Waxing Crescent, 4% of the Moon is Illuminated
Aug 27
Waxing Crescent
Sep 2
First Quarter
Sep 8
Full
Sep 15
Last Quarter
Sep 24
New

Hourly Weather History & Observations

Time (CDT) Temp. Dew Point Humidity Pressure Visibility Wind Dir Wind Speed Gust Speed Precip Events Conditions
12:53 AM 66.0 °F 62.1 °F 87% 30.14 in 10.0 mi NNE 5.8 mph - N/A   Scattered Clouds
1:53 AM 64.9 °F 63.0 °F 93% 30.13 in 10.0 mi NE 3.5 mph - N/A   Partly Cloudy
2:53 AM 64.9 °F 63.0 °F 93% 30.13 in 10.0 mi NE 3.5 mph - N/A Thunderstorm Overcast
3:53 AM 64.9 °F 63.0 °F 93% 30.12 in 10.0 mi ENE 3.5 mph - 0.00 in   Mostly Cloudy
4:53 AM 64.9 °F 62.1 °F 90% 30.13 in 10.0 mi NE 6.9 mph - N/A   Overcast
5:53 AM 63.0 °F 60.1 °F 90% 30.13 in 10.0 mi East 4.6 mph - N/A   Mostly Cloudy
6:53 AM 63.0 °F 60.1 °F 90% 30.14 in 10.0 mi ENE 5.8 mph - N/A   Mostly Cloudy
7:53 AM 64.0 °F 61.0 °F 90% 30.15 in 10.0 mi East 8.1 mph - N/A   Scattered Clouds
8:53 AM 66.0 °F 61.0 °F 84% 30.15 in 10.0 mi East 6.9 mph - N/A   Clear
9:53 AM 69.1 °F 62.1 °F 78% 30.16 in 10.0 mi ESE 9.2 mph - N/A   Clear
10:53 AM 71.1 °F 62.1 °F 73% 30.18 in 10.0 mi ESE 6.9 mph - N/A   Clear
11:53 AM 72.0 °F 62.1 °F 71% 30.18 in 10.0 mi ESE 8.1 mph - N/A   Clear
12:53 PM 72.0 °F 62.1 °F 71% 30.17 in 10.0 mi East 5.8 mph - N/A   Overcast
1:53 PM 73.0 °F 62.1 °F 68% 30.15 in 10.0 mi Variable 3.5 mph - N/A   Overcast
2:53 PM 75.0 °F 64.0 °F 69% 30.14 in 10.0 mi East 3.5 mph - N/A   Mostly Cloudy
3:53 PM 75.0 °F 64.0 °F 69% 30.12 in 10.0 mi East 6.9 mph - N/A   Clear
4:53 PM 73.9 °F 64.0 °F 71% 30.09 in 10.0 mi ENE 6.9 mph - N/A   Clear
5:53 PM 73.9 °F 64.9 °F 73% 30.09 in 10.0 mi ENE 8.1 mph - N/A   Clear
6:53 PM 72.0 °F 64.9 °F 78% 30.08 in 10.0 mi East 4.6 mph - N/A   Clear
7:53 PM 69.1 °F 64.9 °F 87% 30.07 in 10.0 mi East 4.6 mph - N/A   Clear
8:53 PM 68.0 °F 64.9 °F 90% 30.10 in 10.0 mi ESE 3.5 mph - N/A   Clear
9:53 PM 66.9 °F 64.9 °F 93% 30.12 in 10.0 mi Calm Calm - N/A   Mostly Cloudy
10:53 PM 66.9 °F 64.9 °F 93% 30.10 in 10.0 mi NE 5.8 mph - N/A   Overcast
11:53 PM 66.0 °F 64.0 °F 93% 30.10 in 10.0 mi East 4.6 mph - N/A   Overcast